Meteo pe oră la Bolshie Staryshi

Astăzi, 6 Mai, Joi

Timp Temperatura Precipitaţii Vânt Presiune Umiditate
00:00 +9°C° 0 mm 5 m/s 734 mmHg 82%
01:00 +8°C° 0 mm 5 m/s 734 mmHg 85%
02:00 +8°C° 0 mm 5 m/s 734 mmHg 87%
03:00 +8°C° 0 mm 6 m/s 733 mmHg 89%
04:00 +8°C° 0 mm 6 m/s 733 mmHg 91%
05:00 +8°C° 0 mm 7 m/s 732 mmHg 93%
06:00 +9°C° 0.3 mm 7 m/s 732 mmHg 93%
07:00 +9°C° 0.3 mm 8 m/s 732 mmHg 93%
08:00 +9°C° 0 mm 8 m/s 731 mmHg 93%
09:00 +7°C° 1.8 mm 8 m/s 732 mmHg 92%
10:00 +6°C° 1.8 mm 7 m/s 733 mmHg 91%
11:00 +5°C° 1.8 mm 6 m/s 734 mmHg 91%
12:00 +5°C° 0.2 mm 6 m/s 734 mmHg 86%
13:00 +6°C° 0.2 mm 7 m/s 735 mmHg 82%
14:00 +8°C° 0.2 mm 7 m/s 736 mmHg 77%
15:00 +8°C° 0.3 mm 7 m/s 736 mmHg 76%
16:00 +8°C° 0.3 mm 7 m/s 736 mmHg 75%
17:00 +8°C° 0.3 mm 7 m/s 737 mmHg 75%
18:00 +7°C° 0.1 mm 6 m/s 737 mmHg 77%
19:00 +5°C° 0.1 mm 5 m/s 738 mmHg 80%
20:00 +4°C° 0.1 mm 3 m/s 738 mmHg 82%
21:00 +4°C° 0 mm 4 m/s 739 mmHg 82%
22:00 +3°C° 0 mm 4 m/s 739 mmHg 81%
23:00 +3°C° 0 mm 4 m/s 739 mmHg 81%

Mâine, 7 Mai, Vineri

Timp Temperatura Precipitaţii Vânt Presiune Umiditate
00:00 +1°C° 0 mm 4 m/s 739 mmHg 82%
01:00 +2°C° 0 mm 3 m/s 739 mmHg 83%
02:00 +1°C° 0 mm 3 m/s 740 mmHg 85%
03:00 +1°C° 0 mm 3 m/s 740 mmHg 84%
04:00 0°C° 0 mm 4 m/s 740 mmHg 83%
05:00 +1°C° 0 mm 4 m/s 740 mmHg 83%
06:00 +3°C° 0 mm 5 m/s 740 mmHg 79%
07:00 +5°C° 0 mm 6 m/s 740 mmHg 76%
08:00 +8°C° 0 mm 6 m/s 740 mmHg 72%
09:00 +9°C° 0.1 mm 6 m/s 740 mmHg 69%
10:00 +10°C° 0.1 mm 7 m/s 740 mmHg 65%
11:00 +11°C° 0.1 mm 7 m/s 739 mmHg 62%
12:00 +11°C° 0.3 mm 7 m/s 739 mmHg 62%
13:00 +11°C° 0.3 mm 7 m/s 739 mmHg 63%
14:00 +12°C° 0.3 mm 7 m/s 739 mmHg 64%
15:00 +11°C° 0.3 mm 7 m/s 738 mmHg 68%
16:00 +10°C° 0.3 mm 7 m/s 738 mmHg 72%
17:00 +10°C° 0.3 mm 6 m/s 738 mmHg 76%
18:00 +9°C° 1.8 mm 7 m/s 737 mmHg 81%
19:00 +7°C° 1.8 mm 8 m/s 736 mmHg 87%
20:00 +7°C° 1.8 mm 8 m/s 736 mmHg 92%
21:00 +8°C° 0.3 mm 7 m/s 736 mmHg 93%
22:00 +8°C° 0.3 mm 7 m/s 735 mmHg 94%
23:00 +8°C° 0.3 mm 6 m/s 735 mmHg 95%

Poimâine, 8 Mai, Sâmbătă

Timp Temperatura Precipitaţii Vânt Presiune Umiditate
00:00 +8°C° 0.1 mm 5 m/s 735 mmHg 95%
01:00 +8°C° 0.1 mm 4 m/s 735 mmHg 96%
02:00 +8°C° 0.1 mm 4 m/s 734 mmHg 96%
03:00 +9°C° 0.5 mm 3 m/s 734 mmHg 96%
04:00 +8°C° 0.5 mm 3 m/s 734 mmHg 97%
05:00 +8°C° 0.5 mm 2 m/s 734 mmHg 97%
06:00 +8°C° 0.3 mm 3 m/s 734 mmHg 95%
07:00 +7°C° 0.3 mm 4 m/s 734 mmHg 94%
08:00 +7°C° 0.3 mm 5 m/s 734 mmHg 92%
09:00 +8°C° 0.3 mm 5 m/s 734 mmHg 86%
10:00 +8°C° 0.3 mm 6 m/s 734 mmHg 81%
11:00 +9°C° 0.3 mm 7 m/s 734 mmHg 75%
12:00 +5°C° 0.3 mm 7 m/s 735 mmHg 82%
13:00 +2°C° 0.3 mm 8 m/s 736 mmHg 89%
14:00 0°C° 0.3 mm 8 m/s 737 mmHg 96%
15:00 +1°C° 0.6 mm 8 m/s 738 mmHg 93%
16:00 +2°C° 0.6 mm 7 m/s 738 mmHg 89%
17:00 +3°C° 0.6 mm 7 m/s 739 mmHg 86%
18:00 +3°C° 0 mm 6 m/s 739 mmHg 86%
19:00 +2°C° 0 mm 5 m/s 740 mmHg 86%
20:00 +2°C° 0 mm 5 m/s 740 mmHg 85%
21:00 +1°C° 0 mm 5 m/s 741 mmHg 87%
22:00 +1°C° 0 mm 5 m/s 741 mmHg 90%
23:00 +1°C° 0 mm 4 m/s 742 mmHg 92%

9 Mai, Duminică

Timp Temperatura Precipitaţii Vânt Presiune Umiditate
00:00 0°C° 0 mm 4 m/s 742 mmHg 93%
01:00 0°C° 0 mm 4 m/s 743 mmHg 93%
02:00 0°C° 0 mm 4 m/s 743 mmHg 94%
03:00 -1°C° 0 mm 4 m/s 744 mmHg 94%
04:00 -1°C° 0 mm 4 m/s 745 mmHg 94%
05:00 -1°C° 0 mm 4 m/s 746 mmHg 93%
06:00 +1°C° 0 mm 4 m/s 746 mmHg 86%
07:00 +3°C° 0 mm 4 m/s 747 mmHg 78%
08:00 +5°C° 0 mm 5 m/s 748 mmHg 71%
09:00 +6°C° 0 mm 5 m/s 748 mmHg 64%
10:00 +7°C° 0 mm 5 m/s 749 mmHg 58%
11:00 +9°C° 0 mm 5 m/s 749 mmHg 51%
12:00 +10°C° 0 mm 4 m/s 749 mmHg 49%
13:00 +11°C° 0 mm 4 m/s 749 mmHg 48%
14:00 +11°C° 0 mm 4 m/s 750 mmHg 46%
15:00 +11°C° 0 mm 3 m/s 750 mmHg 47%
16:00 +11°C° 0 mm 3 m/s 750 mmHg 48%
17:00 +12°C° 0 mm 2 m/s 750 mmHg 50%
18:00 +9°C° 0 mm 2 m/s 751 mmHg 54%
19:00 +8°C° 0 mm 2 m/s 751 mmHg 58%
20:00 +7°C° 0 mm 1 m/s 751 mmHg 62%
21:00 +6°C° 0 mm 2 m/s 752 mmHg 64%
22:00 +5°C° 0 mm 2 m/s 752 mmHg 66%
23:00 +4°C° 0 mm 3 m/s 752 mmHg 68%

10 Mai, Luni

Timp Temperatura Precipitaţii Vânt Presiune Umiditate
00:00 +3°C° 0 mm 3 m/s 753 mmHg 69%
01:00 +3°C° 0 mm 3 m/s 753 mmHg 71%
02:00 +3°C° 0 mm 3 m/s 753 mmHg 73%
03:00 +3°C° 0 mm 3 m/s 753 mmHg 74%
04:00 +3°C° 0 mm 3 m/s 754 mmHg 75%
05:00 +3°C° 0 mm 3 m/s 754 mmHg 77%
06:00 +5°C° 0 mm 3 m/s 754 mmHg 72%
07:00 +8°C° 0 mm 3 m/s 755 mmHg 67%
08:00 +10°C° 0 mm 3 m/s 755 mmHg 62%
09:00 +11°C° 0 mm 4 m/s 755 mmHg 59%
10:00 +12°C° 0 mm 4 m/s 755 mmHg 56%
11:00 +14°C° 0 mm 4 m/s 755 mmHg 53%
12:00 +14°C° 0 mm 4 m/s 755 mmHg 52%
13:00 +15°C° 0 mm 4 m/s 755 mmHg 51%
14:00 +16°C° 0 mm 3 m/s 754 mmHg 51%
15:00 +16°C° 0 mm 3 m/s 754 mmHg 54%
16:00 +16°C° 0 mm 3 m/s 754 mmHg 56%
17:00 +16°C° 0 mm 3 m/s 754 mmHg 59%
18:00 +13°C° 0 mm 3 m/s 754 mmHg 63%
19:00 +11°C° 0 mm 3 m/s 754 mmHg 67%
20:00 +9°C° 0 mm 3 m/s 754 mmHg 71%
21:00 +9°C° 0 mm 3 m/s 754 mmHg 71%
22:00 +8°C° 0 mm 2 m/s 754 mmHg 70%
23:00 +7°C° 0 mm 2 m/s 754 mmHg 70%

11 Mai, Marţi

Timp Temperatura Precipitaţii Vânt Presiune Umiditate
00:00 +7°C° 0 mm 2 m/s 754 mmHg 71%
01:00 +6°C° 0 mm 2 m/s 754 mmHg 72%
02:00 +6°C° 0 mm 2 m/s 754 mmHg 74%
03:00 +6°C° 0 mm 2 m/s 754 mmHg 75%
04:00 +6°C° 0 mm 2 m/s 755 mmHg 77%
05:00 +6°C° 0 mm 2 m/s 755 mmHg 79%
06:00 +8°C° 0 mm 2 m/s 755 mmHg 74%
07:00 +10°C° 0 mm 3 m/s 755 mmHg 69%
08:00 +12°C° 0 mm 3 m/s 755 mmHg 63%
09:00 +13°C° 0 mm 3 m/s 754 mmHg 59%
10:00 +14°C° 0 mm 4 m/s 754 mmHg 54%
11:00 +17°C° 0 mm 4 m/s 754 mmHg 49%
12:00 +17°C° 0 mm 4 m/s 754 mmHg 48%
13:00 +18°C° 0 mm 4 m/s 753 mmHg 47%
14:00 +19°C° 0 mm 4 m/s 753 mmHg 45%
15:00 +19°C° 0 mm 3 m/s 753 mmHg 49%
16:00 +18°C° 0 mm 3 m/s 753 mmHg 53%
17:00 +18°C° 0 mm 3 m/s 753 mmHg 56%
18:00 +16°C° 0 mm 3 m/s 753 mmHg 62%
19:00 +13°C° 0 mm 3 m/s 752 mmHg 68%
20:00 +11°C° 0 mm 3 m/s 752 mmHg 74%
21:00 +11°C° 0 mm 3 m/s 752 mmHg 77%
22:00 +10°C° 0 mm 3 m/s 752 mmHg 80%
23:00 +10°C° 0 mm 3 m/s 752 mmHg 82%
Arată mai mult

Formular de consimțământ

Meteoprog și furnizorii noștri de servicii pot stoca și accesa date personale, precum cookies, identificatori de dispozitiv sau alte tehnologii similare pe dispozitivul dumneavoastră și procesa astfel de date pentru a personaliza conținutul și reclamele, dar și pentru a oferi caracteristici de social media și pentru a analiza traficul.

  • Stocarea și/sau accesarea informațiilor pe dispozitivul dumneavoastră

    Cookies, identificatori de dispozitiv sau alte informații pot fi stocate sau accesate pe dispozitiv în scopurile indicate mai sus.

  • Reclame și conținut personalizat, evaluarea reclamelor și a conținutului, informații despre audiențe și dezvoltarea produselor

    Reclamele și conținutul pot fi personalizate pe baza unui profil. Pot fi adăugate date suplimentare pentru a personaliza mai bine reclamele și conținutul. Performanța reclamelor și conținutului poate fi măsurată. Pot fi obținute informații despre utilizatorii care au văzut reclamele și conținutul. Aceste date pot fi utilizate pentru a dezvolta sau îmbunătăți experiența utilizatorilor, sistemele și software-ul.

Dând clic pe ‘Sunt de acord’, permiteți utilizarea cookie-urilor menționate, a identificatorilor de dispozitiv, balizelor web sau altor tehnologii similare. Setările pot fi modificate din browser-ul dispozitivului dumneavoastră.

În anumite scopuri, interesele legitime pot prima asupra consimțământului. Puteți citi mai multe informații în acest sens în Politica privind Confidențialitatea Datelor și Cookie.